Regional Weather Roundup
Issued by NWS Charleston, SC

Current Version | Previous Version | Text Only | Print | Product List | Glossary Off
Versions: 1 2 3 4 5 6 7 8 9 10 11 12 13 14 15 16 17 18 19 20 21 22 23 24 25 26 27 28 29 30 31 32 33 34 35 36 37 38 39 40 41 42 43 44 45 46 47 48 49 50

000
ASUS42 KCHS 270812
RWRCHS

REGIONAL WEATHER ROUNDUP
NATIONAL WEATHER SERVICE CHARLESTON SC
400 AM EDT TUE JUN 27 2017

NOTE: "FAIR" INDICATES FEW OR NO CLOUDS BELOW 12,000 FEET WITH NO
SIGNIFICANT WEATHER AND/OR OBSTRUCTIONS TO VISIBILITY.

NOT ALL STATIONS ARE QUALITY CONTROLLED. USE DATA WITH CAUTION...
ESPECIALLY DEWPOINT OBSERVATIONS.

SCZ027-030-031-034>040-042>050-270900-
...SOUTHEAST SOUTH CAROLINA...

CITY           SKY/WX    TMP DP  RH WIND       PRES   REMARKS
N CHARLESTON   PTCLDY    70  66  87 CALM      30.02S
WATERFRONT PRK   N/A     77  70  79 CALM      30.00S
JOHNS ISLAND   FAIR      72  70  94 CALM      30.02S
PINOPOLIS        N/A     73  70  88 CALM      29.94F
MONCKS CORNER  FAIR      66  64  94 CALM      30.02S
SUMMERVILLE    CLOUDY    68  66  94 CALM      30.03S
BEAUFORT MCAS  PTCLDY    73  72  96 CALM      30.02F
BEAUFORT ARPT  FAIR      73  72  94 CALM      30.01F
HILTON HEAD IS MOCLDY    73  73 100 CALM      30.02F
WALTERBORO     CLOUDY    68  66  94 CALM      30.03S
ALLENDALE      PTSUNNY   70  68  94 CALM      30.02S

...SOUTHERN MIDLANDS AND PEE DEE...

CITY           SKY/WX    TMP DP  RH WIND       PRES   REMARKS
GEORGETOWN     FAIR      64  64 100 CALM      30.02F
KINGSTREE      FAIR      63  61  94 CALM      30.03S
ORANGEBURG     PTCLDY    66  65  96 CALM      30.03F
BARNWELL       FAIR      66  66 100 CALM      30.04S
AIKEN          FAIR      63  61  94 CALM      30.07F
MANNING        FAIR      63  63 100 CALM      30.03S
COLUMBIA       PTCLDY    67  62  84 CALM      30.02F
SUMTER         CLEAR     71  60  70 CALM      30.00F
FLORENCE       CLEAR     66  64  93 CALM      30.03S
MYRTLE BEACH   CLEAR     69  66  90 N3        30.03F
N MYRTLE BEACH CLEAR     66  65  96 CALM      30.02S

$$

GAZ063-065-086>088-099>101-113>116-118-119-134>141-150-270900-
...SOUTHEAST GEORGIA...

CITY           SKY/WX    TMP DP  RH WIND       PRES   REMARKS
SAVANNAH ARPT  PTCLDY    74  71  91 CALM      30.02F
HUNTER AAF     CLOUDY    75  73  95 CALM      30.00S
FORT STEWART   MOCLDY    72  71  96 CALM      30.00S
STATESBORO     MOCLDY    73  32  22 CALM      30.03S
SYLVANIA       MOSUNNY   72  72 100 CALM      30.04S
CLAXTON        FAIR      69  69  99 CALM      30.03S FOG

...CSRA...CENTRAL AND FAR SOUTHEAST GEORGIA...

CITY           SKY/WX    TMP DP  RH WIND       PRES   REMARKS
THOMSON        PTCLDY    66  62  87 N3        30.10S
AUGUSTA-BUSH   PTCLDY    65  64  97 SE3       30.02F
AUGUSTA-DANIEL PTCLDY    73  60  63 CALM      30.04S
SWAINSBORO     FAIR      68  68 100 CALM      30.05S
VIDALIA        PTCLDY    72  72 100 CALM      30.04S
EASTMAN        FAIR      69  69 100 CALM      30.06S
HAZLEHURST     FAIR      73  73 100 CALM      30.03S
ALMA           MOCLDY    72  70  93 CALM      30.02S
WAYCROSS       CLOUDY    74  74 100 CALM      30.02S
JESUP          FAIR      72  68  88 CALM      30.02S
BAXLEY         MOCLDY    72  72 100 CALM      30.03R
BRUNSWICK      FOG       73  73 100 CALM      30.02S VSB 1
SAINT SIMONS   MOCLDY    76  75  97 NW3       30.00F

$$

SCZ027-028-034-036>038-045-046-048>050-GAZ119-141-270900-
...LAKE AND SUPPLEMENTAL COASTAL OBSERVATIONS...

STATION/POSITION TIME  TEMP    WIND        PRES    WAVE   SWELL
                       AIR SEA DIR/SP/G            HT/PER HT/PER/DIR
                 (UTC) (F)     (DEG/KT/KT) (MB)    (FT/S) (FT/S/D)
WINYAH BAY       0645   69     300/  2     1017.0
LAKE MURRAY      0720   76     260/  5/  6 1016.3
ACE BASIN NERRS  0645   72        CALM     1017.0
FORT PULASKI     0748   78 84  360/  3/  5 1016.6F
SAPELO ISLAND    0700   75        CALM     1016.0

$$

ANZ835-935-AMZ111-154-330-350-352-354-370-450-454-472-270900-
...C-MAN AND BUOY OBSERVATIONS...

STATION/POSITION TIME  TEMP    WIND        PRES    WAVE   SWELL
                       AIR SEA DIR/SP/G            HT/PER HT/PER/DIR
                 (UTC) (F)     (DEG/KT/KT) (MB)    (FT/S) (FT/S/D)
BUOY 41004       0750   79 81   30/  6/  8 1015.6F   2/ 5   2/ 70/ 5
BUOY 41008       0750   79 82   70/  2/  2 1015.9F   2/ 5   2/ 40/ 5
FOLLY BEACH CMAN 0700   80      90/  2/  3 1017.1F
CAPERS NEARSHORE 0708   85 83   90/  4/  8 1016.4F
FRIPP NEARSHORE  0708   79 83   80/  2/  6 1016.2R


STATION/POSITION TIME  TEMP    WIND        PRES    WAVE   SWELL
                       AIR SEA DIR/SP/G            HT/PER HT/PER/DIR
                 (UTC) (F)     (DEG/KT/KT) (MB)    (FT/S) (FT/S/D)
5E ST. MARYS GA  0730      80                N/A     1/ 8
FRYING PAN BUOY  0750   78 80   30/  4/  6 1015.9S   2/ 5   2/170/ 5
BUOY 41025       0750   77 81  330/  6/  6 1015.8F   1/ 8   2/150/ 8
CAPE LOOKOUT NC  0700   76      CALM  /  1 1015.9F
BUOY 41002       0650   80 80  200/ 12/ 14 1015.7    3/ 6   2/120/ 7
BUOY 41010       0750   83 83  170/ 17/ 21 1014.9F   3/ 8   2/150/ 8
ST AUGUSTINE FL  0800   74 78  310/  2/  2 1016.1R


$$




USA.gov is the U.S. government's official web portal to all federal, state and local government web resources and services.